[[{"header":{"parameterUnit":"m.s-1","parameterCategory":1,"la1":30.2991,"la2":30.254,"lo1":-89.0895,"lo2":-89.0444,"dy":0.0017,"dx":0.0017,"nx":28,"ny":28,"refTime":"2025-09-13T03:00:00:Z","depth":0,"parameterNumber":2,"parameterNumberName":"U-component_of_WINDS"},"data":[0,0,0,0,0,0,0,0,0,0,0,0,0,0,0,0,0,0,0,0,0,0,0,0,0,0,0,0,0,0,0,0,0,0,0,0,0,0,0,0,0,0,0,0,0,0,0,0,0,0,0,0,0,0,0,0,0,0,-1.2033,-1.2034,0,-1.2131,-1.2133,-1.2134,-1.2143,-1.2142,-1.2141,-1.214,-1.2239,-1.2243,-1.2246,0,0,0,0,0,0,0,0,0,0,0,0,0,-1.1852,-1.1855,-1.2033,-1.2034,-1.2035,-1.2131,-1.2133,-1.2134,-1.2143,-1.2142,-1.214,-1.2139,-1.2238,-1.2242,-1.2246,0,0,0,0,0,0,0,0,0,0,0,0,0,-1.1939,-1.1856,-1.2033,-1.2051,-1.2054,-1.2131,-1.2133,-1.2134,-1.2143,-1.2142,-1.214,-1.2139,-1.2236,-1.2242,-1.2247,-1.2312,0,0,-1.2264,-1.2266,0,0,0,0,0,0,0,0,-1.1934,-1.1945,-1.2047,-1.205,-1.2053,-1.2123,-1.2105,-1.2194,-1.2144,-1.2109,-1.214,-1.2138,-1.2202,-1.221,-1.2232,-1.2316,-1.232,-1.2264,-1.2267,-1.227,-1.2271,0,0,0,0,0,0,0,-1.1928,-1.1941,-1.2072,-1.2049,-1.2053,-1.2055,-1.2065,-1.2122,-1.2163,-1.2112,-1.2113,-1.2125,-1.2203,-1.2226,-1.2234,-1.2322,-1.2264,-1.2269,-1.2272,-1.2274,-1.2466,-1.2468,0,0,0,0,0,0,-1.1918,-1.1936,-1.2069,-1.2075,-1.1988,-1.2059,-1.2071,-1.2102,-1.2162,-1.217,-1.2126,-1.2125,-1.2218,-1.2228,-1.2238,-1.2318,-1.227,-1.2275,-1.2278,-1.2464,-1.2466,-1.2468,0,0,0,0,0,0,-1.1914,-1.193,-1.2065,-1.2006,-1.2023,-1.2064,-1.2099,-1.2105,-1.2129,-1.2173,-1.218,-1.2142,-1.2217,-1.223,-1.2294,-1.2322,-1.2277,-1.2282,-1.2462,-1.2465,-1.2467,-1.2479,0,0,0,0,0,0,-1.1909,-1.1929,-1.1953,-1.2006,-1.2026,-1.2119,-1.2101,-1.2108,-1.2138,-1.2137,-1.219,-1.2197,-1.2217,-1.2285,-1.2299,-1.2328,-1.2286,-1.246,-1.2463,-1.2466,-1.2476,-1.2482,-1.2486,0,0,0,0,0,-1.1903,-1.1952,-1.1955,-1.1971,-1.2058,-1.2121,-1.2132,-1.2154,-1.214,-1.2166,-1.2194,-1.2196,-1.2316,-1.2292,-1.2307,-1.2338,-1.2458,-1.2462,-1.2466,-1.2474,-1.248,-1.2486,0,0,0,0,0,0,-1.1901,-1.1959,-1.1963,-1.2031,-1.2071,-1.2122,-1.2155,-1.216,-1.2204,-1.2202,-1.2227,-1.2239,-1.2301,-1.2326,-1.2298,-1.2405,-1.2386,-1.2393,-1.2386,-1.2393,-1.2398,-1.2391,-1.2291,0,0,0,0,0,-1.1908,-1.1955,-1.2003,-1.2059,-1.2079,-1.2113,-1.2141,-1.2155,-1.2197,-1.2214,-1.2247,-1.2288,-1.2335,-1.2365,-1.2411,-1.248,-1.2492,-1.2509,-1.2514,-1.2518,-1.2524,-1.2563,-1.2572,-1.2482,-1.2482,-1.2482,0,0,-1.1924,-1.1962,-1.1989,-1.2059,-1.2092,-1.2139,-1.2127,-1.2177,-1.2213,-1.2221,-1.2284,-1.231,-1.2357,-1.2423,-1.2454,-1.2446,-1.2552,-1.2523,-1.2526,-1.253,-1.2568,-1.2577,-1.2584,-1.2485,-1.2484,-1.2484,0,0,-1.1978,-1.2011,-1.2061,-1.2094,-1.2144,-1.2167,-1.2179,-1.223,-1.2248,-1.2311,-1.2319,-1.2361,-1.2442,-1.2476,-1.2503,-1.2571,-1.2574,-1.2585,-1.2612,-1.265,-1.2657,-1.2663,-1.2688,-1.2696,-1.2591,-1.2591,-1.2591,0,-1.1991,-1.2063,-1.2086,-1.2137,-1.2167,-1.2178,-1.223,-1.2261,-1.2323,-1.2344,-1.2333,-1.2436,-1.2468,-1.2543,-1.256,-1.2582,-1.2597,-1.2579,-1.2654,-1.2661,-1.2667,-1.2691,-1.27,-1.2592,-1.2592,-1.2592,-1.2592,0,-1.2077,-1.2127,-1.2162,-1.2222,-1.2257,-1.2308,-1.2339,-1.2371,-1.2382,-1.2406,-1.2471,-1.251,-1.2565,-1.2584,-1.2594,-1.2661,-1.2654,-1.2649,-1.263,-1.2676,-1.2699,-1.2708,-1.2594,-1.2593,-1.2593,-1.2593,0,0,-1.2131,-1.2205,-1.2218,-1.2246,-1.2302,-1.2341,-1.2393,-1.2447,-1.2474,-1.2517,-1.2561,-1.263,-1.2626,-1.2657,-1.2672,-1.2705,-1.2757,-1.2696,-1.2697,-1.2706,-1.2834,-1.2838,-1.2848,-1.276,-1.2762,-1.2763,-1.283,0,-1.2191,-1.2284,-1.2307,-1.2386,-1.2432,-1.2444,-1.2489,-1.2529,-1.2553,-1.2596,-1.2623,-1.2671,-1.2662,-1.2681,-1.2714,-1.2744,-1.2783,-1.2739,-1.2801,-1.2803,-1.2789,-1.286,-1.2864,-1.2925,-1.2839,-1.2841,-1.2842,0,-1.2273,-1.2319,-1.2403,-1.2455,-1.2475,-1.2515,-1.2567,-1.2608,-1.2654,-1.2669,-1.2705,-1.2717,-1.2771,-1.275,-1.2825,-1.2795,-1.2822,-1.284,-1.2843,-1.285,-1.2825,-1.2869,-1.2945,-1.2954,-1.2856,-1.2855,-1.2854,0,-1.2305,-1.2387,-1.2449,-1.2472,-1.2534,-1.2562,-1.2589,-1.2633,-1.2664,-1.271,-1.2731,-1.2782,-1.2809,-1.2849,-1.2874,-1.2856,-1.2948,-1.2928,-1.2962,-1.2962,-1.2981,-1.2979,-1.3063,-1.2998,-1.2998,-1.2997,-1.2997,0,-1.237,-1.2421,-1.2464,-1.2501,-1.2559,-1.2585,-1.2642,-1.2669,-1.2708,-1.2751,-1.2764,-1.2804,-1.2835,-1.288,-1.29,-1.296,-1.2972,-1.2986,-1.2991,-1.2986,-1.2984,-1.3003,-1.3,-1.3,-1.2999,-1.2999,-1.2998,0,-1.2414,-1.2445,-1.2513,-1.2566,-1.2581,-1.2621,-1.2667,-1.2704,-1.2729,-1.2784,-1.2798,-1.2837,-1.2891,-1.292,-1.2987,-1.3,-1.3067,-1.307,-1.3052,-1.3054,-1.3087,-1.3083,-1.3186,-1.3201,-1.3125,-1.3126,-1.3127,0,-1.2454,-1.2493,-1.2552,-1.2582,-1.261,-1.2658,-1.2691,-1.2718,-1.2752,-1.2807,-1.2838,-1.2892,-1.2937,-1.3021,-1.3056,-1.3107,-1.3111,-1.3144,-1.3119,-1.3112,-1.3112,-1.3109,-1.3114,-1.3148,-1.3148,-1.3149,-1.3149,0,-1.252,-1.2534,-1.2581,-1.2634,-1.2672,-1.2715,-1.2757,-1.2781,-1.2816,-1.2853,-1.2908,-1.2943,-1.3012,-1.3065,-1.312,-1.3147,-1.3154,-1.3157,-1.3168,-1.3162,-1.3151,-1.3158,-1.3064,-1.3154,-1.3154,-1.3154,-1.3153,-1.3153,-1.2564,-1.26,-1.2647,-1.2699,-1.2734,-1.2774,-1.2812,-1.2842,-1.2889,-1.2947,-1.2961,-1.3019,-1.3065,-1.3139,-1.3168,-1.3214,-1.3208,-1.3223,-1.3227,-1.323,-1.3232,-1.3143,-1.3224,-1.3224,-1.3223,-1.3223,-1.3223,0,-1.2632,-1.2663,-1.2711,-1.277,-1.2811,-1.2815,-1.2862,-1.2896,-1.2948,-1.299,-1.3034,-1.3098,-1.3151,-1.319,-1.3244,-1.3273,-1.3278,-1.3286,-1.3284,-1.3291,-1.3234,-1.3219,-1.3282,-1.3282,-1.3282,-1.3282,-1.3282,-1.3282,-1.2672,-1.2734,-1.2753,-1.2833,-1.2864,-1.2922,-1.2948,-1.2985,-1.3019,-1.309,-1.3134,-1.316,-1.3201,-1.3258,-1.3307,-1.3317,-1.3336,-1.3344,-1.3355,-1.3301,-1.3295,-1.3289,-1.3275,-1.3348,-1.3348,-1.3408,-1.3409,-1.3409]},{"header":{"parameterUnit":"m.s-1","parameterCategory":1,"la1":30.2991,"la2":30.254,"lo1":-89.0895,"lo2":-89.0444,"dy":0.0017,"dx":0.0017,"nx":28,"ny":28,"refTime":"2025-09-13T03:00:00:Z","depth":0,"parameterNumber":3,"parameterNumberName":"V-component_of_WINDS"},"data":[0,0,0,0,0,0,0,0,0,0,0,0,0,0,0,0,0,0,0,0,0,0,0,0,0,0,0,0,0,0,0,0,0,0,0,0,0,0,0,0,0,0,0,0,0,0,0,0,0,0,0,0,0,0,0,0,0,0,-1.2807,-1.2807,0,-1.2817,-1.2818,-1.2818,-1.2839,-1.2839,-1.2839,-1.284,-1.285,-1.285,-1.285,0,0,0,0,0,0,0,0,0,0,0,0,0,-1.2803,-1.2803,-1.2807,-1.2807,-1.2807,-1.2817,-1.2818,-1.2818,-1.2839,-1.2839,-1.284,-1.284,-1.285,-1.285,-1.285,0,0,0,0,0,0,0,0,0,0,0,0,0,-1.2808,-1.2803,-1.2807,-1.2819,-1.282,-1.2817,-1.2818,-1.2818,-1.2838,-1.2839,-1.284,-1.284,-1.285,-1.285,-1.285,-1.2836,0,0,-1.2849,-1.2849,0,0,0,0,0,0,0,0,-1.2808,-1.2809,-1.2817,-1.2818,-1.2819,-1.2827,-1.282,-1.2824,-1.2838,-1.2831,-1.284,-1.2841,-1.2842,-1.2842,-1.2843,-1.2837,-1.2837,-1.2849,-1.2849,-1.2849,-1.2849,0,0,0,0,0,0,0,-1.2808,-1.2808,-1.2811,-1.2817,-1.2818,-1.2823,-1.2825,-1.2821,-1.2833,-1.2832,-1.2834,-1.2835,-1.2843,-1.2843,-1.2843,-1.2837,-1.2849,-1.2849,-1.2849,-1.2849,-1.282,-1.2819,0,0,0,0,0,0,-1.2806,-1.2808,-1.2811,-1.2811,-1.2815,-1.2823,-1.2824,-1.2824,-1.2833,-1.2835,-1.2834,-1.2835,-1.2843,-1.2843,-1.2844,-1.2828,-1.2849,-1.2849,-1.2849,-1.2821,-1.282,-1.2819,0,0,0,0,0,0,-1.2806,-1.2806,-1.281,-1.281,-1.2811,-1.2822,-1.2822,-1.2824,-1.2824,-1.2835,-1.2837,-1.2832,-1.2844,-1.2844,-1.2838,-1.2829,-1.2849,-1.2848,-1.2821,-1.282,-1.2819,-1.2797,0,0,0,0,0,0,-1.2805,-1.2806,-1.2801,-1.281,-1.2811,-1.2804,-1.2821,-1.2824,-1.2824,-1.2826,-1.2834,-1.2835,-1.2844,-1.2838,-1.2838,-1.2829,-1.2848,-1.2822,-1.2821,-1.282,-1.2798,-1.2795,-1.2792,0,0,0,0,0,-1.2805,-1.2794,-1.28,-1.2801,-1.2805,-1.2804,-1.2804,-1.2815,-1.2823,-1.2818,-1.2825,-1.2835,-1.283,-1.2837,-1.2837,-1.2828,-1.2823,-1.2821,-1.282,-1.28,-1.2796,-1.2793,0,0,0,0,0,0,-1.2783,-1.2795,-1.2803,-1.2794,-1.2798,-1.2807,-1.2801,-1.281,-1.2811,-1.2813,-1.2826,-1.2827,-1.2819,-1.2823,-1.2831,-1.2815,-1.2828,-1.2826,-1.2813,-1.2809,-1.2806,-1.2805,-1.2848,0,0,0,0,0,-1.2777,-1.2776,-1.2786,-1.2777,-1.2779,-1.279,-1.2789,-1.2797,-1.2802,-1.2803,-1.2809,-1.2813,-1.2812,-1.2811,-1.2811,-1.2799,-1.2801,-1.2793,-1.279,-1.2788,-1.2786,-1.278,-1.2776,-1.2814,-1.2814,-1.2814,0,0,-1.2765,-1.2772,-1.277,-1.2773,-1.2777,-1.2774,-1.2791,-1.2787,-1.2786,-1.2803,-1.2797,-1.2802,-1.2806,-1.2797,-1.2794,-1.28,-1.2776,-1.2786,-1.2784,-1.2783,-1.2778,-1.2774,-1.2771,-1.2813,-1.2813,-1.2813,0,0,-1.2741,-1.2746,-1.2739,-1.2743,-1.2749,-1.2756,-1.2754,-1.2763,-1.2766,-1.2761,-1.2774,-1.2772,-1.277,-1.2773,-1.2774,-1.2751,-1.2761,-1.2751,-1.2735,-1.2729,-1.2726,-1.2723,-1.2715,-1.2711,-1.275,-1.2749,-1.2749,0,-1.2725,-1.2722,-1.2735,-1.273,-1.2731,-1.2747,-1.274,-1.2743,-1.2748,-1.2748,-1.2756,-1.2754,-1.2758,-1.275,-1.2744,-1.2745,-1.2743,-1.275,-1.2725,-1.2723,-1.2721,-1.2712,-1.2709,-1.2748,-1.2748,-1.2748,-1.2749,0,-1.2702,-1.27,-1.2693,-1.2698,-1.2699,-1.2693,-1.2704,-1.2703,-1.2711,-1.2717,-1.2711,-1.2717,-1.2718,-1.2717,-1.2725,-1.271,-1.2714,-1.2723,-1.2736,-1.2716,-1.2708,-1.2705,-1.2746,-1.2747,-1.2747,-1.2748,0,0,-1.2664,-1.2676,-1.2673,-1.2676,-1.2683,-1.2681,-1.2676,-1.2678,-1.2676,-1.268,-1.2675,-1.2674,-1.2682,-1.2684,-1.2692,-1.2687,-1.2668,-1.2697,-1.2697,-1.269,-1.2651,-1.2643,-1.2639,-1.2674,-1.2674,-1.2673,-1.265,0,-1.2641,-1.2633,-1.2644,-1.2634,-1.2632,-1.2647,-1.2642,-1.2646,-1.2652,-1.2651,-1.2658,-1.2656,-1.2668,-1.2669,-1.2665,-1.2671,-1.266,-1.2673,-1.267,-1.2669,-1.2667,-1.2635,-1.2627,-1.2605,-1.2647,-1.2647,-1.2647,0,-1.2613,-1.2615,-1.2605,-1.2613,-1.2612,-1.2608,-1.261,-1.2609,-1.2614,-1.2619,-1.262,-1.263,-1.2625,-1.2639,-1.2632,-1.2641,-1.264,-1.2643,-1.2642,-1.2642,-1.2656,-1.2633,-1.2598,-1.2594,-1.2642,-1.2643,-1.2643,0,-1.2585,-1.2586,-1.2579,-1.2581,-1.2591,-1.2587,-1.2591,-1.2596,-1.2597,-1.2598,-1.2598,-1.26,-1.26,-1.2601,-1.261,-1.2619,-1.2602,-1.2616,-1.2605,-1.2605,-1.26,-1.26,-1.2564,-1.2601,-1.2601,-1.2602,-1.2602,0,-1.2558,-1.2551,-1.2567,-1.2563,-1.2555,-1.2568,-1.256,-1.2565,-1.257,-1.2567,-1.258,-1.2577,-1.2591,-1.2589,-1.2597,-1.2589,-1.259,-1.2593,-1.2595,-1.2591,-1.2591,-1.259,-1.2592,-1.2601,-1.2601,-1.2601,-1.2601,0,-1.2526,-1.2536,-1.253,-1.254,-1.2542,-1.2536,-1.2544,-1.254,-1.2548,-1.2543,-1.2543,-1.2554,-1.2553,-1.2563,-1.2563,-1.2568,-1.2557,-1.2562,-1.2555,-1.2557,-1.2545,-1.2545,-1.2506,-1.2501,-1.2543,-1.2542,-1.2542,0,-1.2507,-1.2502,-1.2511,-1.251,-1.2513,-1.2512,-1.2512,-1.2525,-1.2524,-1.2529,-1.2525,-1.2525,-1.2525,-1.2522,-1.253,-1.253,-1.2535,-1.2521,-1.2535,-1.2531,-1.2533,-1.2533,-1.2532,-1.2518,-1.2517,-1.2517,-1.2516,0,-1.2473,-1.2478,-1.2478,-1.248,-1.248,-1.2482,-1.2485,-1.2483,-1.2497,-1.2496,-1.2495,-1.2495,-1.2495,-1.2495,-1.2497,-1.25,-1.251,-1.2512,-1.2509,-1.2505,-1.2501,-1.2502,-1.2547,-1.2513,-1.2513,-1.2513,-1.2513,-1.2514,-1.2446,-1.2442,-1.2448,-1.2447,-1.2451,-1.2453,-1.245,-1.2457,-1.2457,-1.2458,-1.2466,-1.2463,-1.2468,-1.2471,-1.2474,-1.2472,-1.2478,-1.2475,-1.2473,-1.2472,-1.247,-1.2502,-1.2472,-1.2472,-1.2473,-1.2473,-1.2473,0,-1.2412,-1.2417,-1.2416,-1.242,-1.2419,-1.243,-1.2433,-1.2432,-1.2429,-1.2433,-1.2434,-1.2432,-1.2431,-1.2439,-1.244,-1.2436,-1.2441,-1.2436,-1.2436,-1.2436,-1.2464,-1.2466,-1.2432,-1.2432,-1.2432,-1.2432,-1.2432,-1.2432,-1.2394,-1.2387,-1.2394,-1.2389,-1.2394,-1.2391,-1.2392,-1.2394,-1.2398,-1.2395,-1.2395,-1.24,-1.2406,-1.2407,-1.2406,-1.2409,-1.2408,-1.2401,-1.2405,-1.243,-1.2434,-1.2438,-1.244,-1.2401,-1.2401,-1.2377,-1.2377,-1.2376]}]]